עמוד ראשי
METAR-TAF:

METAR-TAF

שדות תעופה :

Abumusa, איראן

קו רוחב: 25-52-33N, קו אורך: 055-02-01E, גובה: 7מטר

תצפית מזג אוויר נוכחית

הדו"ח נערך לפני 10 שעות ו 46דקות, בשעה 15:00 UTC
רוח 6קשר מכיוון צפון
טמפרטורת 36 צלסיוס
לחות 76%
לחץ 993 hPa
ראות: 5000מטר
אובך,

METAR: OIBA 211500Z 35006KT 5000 HZ NSC 36/31 Q0993

זמן: 06:16 (01:46 UTC)


TAF: חסר

תצפיות ותחזיות מזג אוויר לגבי יותר מ- 4,000 שדות תעופה ברחבי העולם. דוחות METAR ו- TAF.

התחנות הזמינות מסומנות בנקודות צהובות ואדומות על גבי המפה.

העבר את העכבר לנקודה הצבעונית על מנת לראות את שם התחנה.

לאחר מכן, לחץ כדי לראות את תוכן ואת תחזיות מזג האוויר.

כדי לשנות את המפה: לחץ על הכפתורים הירוקים עם הפלוס השחור כדי להתקרב; על הכפתור הירוק עם המקף כדי להתרחק; או בחיצים הירוקים למפות סמוכות.


METAR-TAF: